LOB4223 KACY-KBGR

Flight info

Callsign LOB4223
Flight time 1h 10m
Altitude 37000
Route BRIGS MAD PEASE ENE
Aircraft B738/M-SDE2E3FGHIRWXY/LB1

Departure

Time 2026-05-04 09:47
Airport Atlantic City International Airport (KACY)

Arrival

Time 2026-05-04 10:57
Airport Bangor International Airport (KBGR)
Time Latitude Longitude Altitude Speed Heading
2026-05-04 09:34 39.45096 -74.56713 77 ft 0 kts 209°
2026-05-04 09:37 39.45097 -74.56658 68 ft 0 kts 298°
2026-05-04 09:42 39.45147 -74.56775 77 ft 5 kts 306°
2026-05-04 09:43 39.45171 -74.56800 77 ft 5 kts 330°
2026-05-04 09:43 39.45203 -74.56807 74 ft 5 kts
2026-05-04 09:43 39.45237 -74.56789 73 ft 6 kts 26°
2026-05-04 09:43 39.45276 -74.56763 74 ft 7 kts 28°
2026-05-04 09:44 39.45283 -74.56708 74 ft 7 kts 110°
2026-05-04 09:44 39.45258 -74.56644 71 ft 9 kts 118°
2026-05-04 09:44 39.45228 -74.56572 73 ft 10 kts 118°
2026-05-04 09:46 39.45164 -74.56047 76 ft 14 kts 308°
2026-05-04 09:46 39.45268 -74.56296 71 ft 63 kts 298°
2026-05-04 09:46 39.45601 -74.57102 75 ft 144 kts 298°
2026-05-04 09:47 39.46195 -74.58494 343 ft 198 kts 297°
2026-05-04 09:47 39.46905 -74.60110 1332 ft 211 kts 298°
2026-05-04 09:49 39.52635 -74.53397 7228 ft 254 kts 114°
2026-05-04 09:49 39.51974 -74.51276 7960 ft 254 kts 119°
2026-05-04 09:49 39.51175 -74.49222 8657 ft 257 kts 120°
2026-05-04 09:51 39.49757 -74.35108 12671 ft 277 kts 84°
2026-05-04 09:51 39.50004 -74.32623 13394 ft 279 kts 83°
2026-05-04 09:51 39.50289 -74.30125 14072 ft 282 kts 82°
2026-05-04 09:51 39.50600 -74.27602 14688 ft 286 kts 81°
2026-05-04 09:52 39.50929 -74.25044 15309 ft 290 kts 81°
2026-05-04 09:52 39.51270 -74.22452 15921 ft 294 kts 80°
2026-05-04 09:52 39.51620 -74.19803 16381 ft 307 kts 80°
2026-05-04 09:52 39.51999 -74.16979 16547 ft 329 kts 77°
2026-05-04 09:53 39.52850 -74.14156 16700 ft 347 kts 53°
2026-05-04 09:53 39.54553 -74.11944 16876 ft 359 kts 30°
2026-05-04 09:53 39.56717 -74.10189 17118 ft 375 kts 26°
2026-05-04 09:53 39.58990 -74.08471 17655 ft 382 kts 26°
2026-05-04 09:54 39.61304 -74.06739 18360 ft 385 kts 26°
2026-05-04 09:54 39.63621 -74.04989 18998 ft 387 kts 26°
2026-05-04 09:54 39.65950 -74.03208 19593 ft 390 kts 26°
2026-05-04 09:54 39.68292 -74.01397 20168 ft 394 kts 26°
2026-05-04 09:55 39.70653 -73.99555 20730 ft 398 kts 26°
2026-05-04 09:55 39.73042 -73.97681 21248 ft 403 kts 26°
2026-05-04 09:55 39.75453 -73.95784 21817 ft 407 kts 26°
2026-05-04 09:55 39.77881 -73.93867 22391 ft 410 kts 26°
2026-05-04 09:56 39.80321 -73.91937 22995 ft 412 kts 26°
2026-05-04 09:56 39.82775 -73.89994 23569 ft 414 kts 26°
2026-05-04 09:56 39.85247 -73.88035 24018 ft 418 kts 26°
2026-05-04 09:56 39.87745 -73.86056 24415 ft 422 kts 26°
2026-05-04 09:57 39.90258 -73.84063 24809 ft 426 kts 26°
2026-05-04 09:57 39.92808 -73.82039 25220 ft 430 kts 26°
2026-05-04 09:57 39.95370 -73.80003 25613 ft 434 kts 26°
2026-05-04 09:57 39.97954 -73.77948 26006 ft 437 kts 26°
2026-05-04 09:58 40.00562 -73.75871 26472 ft 439 kts 26°
2026-05-04 09:58 40.03173 -73.73789 26920 ft 441 kts 26°
2026-05-04 09:58 40.05797 -73.71695 27290 ft 444 kts 26°
2026-05-04 10:00 40.23781 -73.57225 29713 ft 463 kts 25°
2026-05-04 10:00 40.26550 -73.55024 29947 ft 468 kts 25°
2026-05-04 10:02 40.46280 -73.39162 31927 ft 480 kts 26°
2026-05-04 10:04 40.66177 -73.23000 33926 ft 485 kts 25°
2026-05-04 10:04 40.69041 -73.20664 34209 ft 484 kts 25°
2026-05-04 10:04 40.71900 -73.18328 34466 ft 484 kts 26°
2026-05-04 10:04 40.74761 -73.15989 34730 ft 484 kts 26°
2026-05-04 10:05 40.77616 -73.13653 35057 ft 481 kts 26°
2026-05-04 10:05 40.80451 -73.11329 35360 ft 480 kts 26°
2026-05-04 10:05 40.83289 -73.09003 35562 ft 481 kts 26°
2026-05-04 10:05 40.86134 -73.06671 35731 ft 482 kts 26°
2026-05-04 10:06 40.88986 -73.04330 35945 ft 482 kts 26°
2026-05-04 10:06 40.91830 -73.01991 36185 ft 482 kts 26°
2026-05-04 10:06 40.94674 -72.99650 36462 ft 481 kts 26°
2026-05-04 10:08 41.11757 -72.85541 37007 ft 484 kts 27°
2026-05-04 10:08 41.14607 -72.83176 36999 ft 483 kts 27°
2026-05-04 10:08 41.20289 -72.78456 36987 ft 480 kts 27°
2026-05-04 10:09 41.25943 -72.73752 36989 ft 478 kts 27°
2026-05-04 10:09 41.31565 -72.69045 37004 ft 478 kts 29°
2026-05-04 10:10 41.36955 -72.63796 36993 ft 481 kts 33°
2026-05-04 10:10 41.42229 -72.58319 36967 ft 481 kts 33°
2026-05-04 10:11 41.47511 -72.52847 36985 ft 481 kts 33°
2026-05-04 10:11 41.52823 -72.47396 36969 ft 482 kts 32°
2026-05-04 10:12 41.58156 -72.41941 36968 ft 484 kts 32°
2026-05-04 10:12 41.63507 -72.36459 36946 ft 486 kts 33°
2026-05-04 10:13 41.68873 -72.30948 36960 ft 487 kts 33°
2026-05-04 10:13 41.74250 -72.25410 36959 ft 488 kts 33°
2026-05-04 10:14 41.79635 -72.19851 36953 ft 489 kts 33°
2026-05-04 10:16 42.01106 -71.97567 36980 ft 487 kts 33°
2026-05-04 10:16 42.06456 -71.91985 36958 ft 486 kts 33°
2026-05-04 10:17 42.11785 -71.86413 36943 ft 485 kts 33°
2026-05-04 10:19 42.32976 -71.64132 36931 ft 482 kts 33°
2026-05-04 10:19 42.38263 -71.58543 36927 ft 482 kts 33°
2026-05-04 10:20 42.43547 -71.52944 36932 ft 482 kts 33°
2026-05-04 10:20 42.48818 -71.47347 36935 ft 482 kts 33°
2026-05-04 10:21 42.54090 -71.41737 36925 ft 482 kts 33°
2026-05-04 10:21 42.59371 -71.36105 36926 ft 483 kts 33°
2026-05-04 10:22 42.67282 -71.27643 36959 ft 483 kts 33°
2026-05-04 10:23 42.72565 -71.21978 36940 ft 484 kts 34°
2026-05-04 10:25 42.93635 -70.99251 36895 ft 484 kts 34°
2026-05-04 10:25 42.98903 -70.93537 36889 ft 483 kts 34°
2026-05-04 10:26 43.04160 -70.87822 36892 ft 483 kts 34°
2026-05-04 10:26 43.09539 -70.82356 36445 ft 482 kts 24°
2026-05-04 10:26 43.12510 -70.80360 36100 ft 471 kts 19°
2026-05-04 10:27 43.15497 -70.78528 35632 ft 470 kts 18°
2026-05-04 10:27 43.18477 -70.76716 35238 ft 468 kts 18°
2026-05-04 10:27 43.21439 -70.74892 34824 ft 466 kts 18°
2026-05-04 10:27 43.24385 -70.73046 34395 ft 466 kts 19°
2026-05-04 10:28 43.27306 -70.71191 33961 ft 458 kts 19°
2026-05-04 10:28 43.30170 -70.69358 33489 ft 449 kts 18°
2026-05-04 10:28 43.32973 -70.67561 33053 ft 440 kts 18°
2026-05-04 10:28 43.35731 -70.65797 32789 ft 440 kts 18°
2026-05-04 10:29 43.38553 -70.64000 32553 ft 453 kts 18°
2026-05-04 10:29 43.41438 -70.62150 32316 ft 462 kts 20°
2026-05-04 10:29 43.44247 -70.59931 32034 ft 470 kts 29°
2026-05-04 10:29 43.46895 -70.57296 31782 ft 468 kts 31°
2026-05-04 10:30 43.49494 -70.54603 31516 ft 467 kts 31°
2026-05-04 10:30 43.52071 -70.51903 31288 ft 464 kts 31°
2026-05-04 10:30 43.54642 -70.49217 31028 ft 462 kts 31°
2026-05-04 10:30 43.57200 -70.46562 30770 ft 459 kts 31°
2026-05-04 10:31 43.59745 -70.43938 30539 ft 457 kts 31°
2026-05-04 10:31 43.62294 -70.41320 30278 ft 454 kts 30°
2026-05-04 10:32 43.77087 -70.26138 27469 ft 434 kts 30°
2026-05-04 10:33 43.79504 -70.23650 27005 ft 431 kts 30°
2026-05-04 10:33 43.81873 -70.21206 26526 ft 430 kts 30°
2026-05-04 10:33 43.84301 -70.18700 26074 ft 428 kts 30°
2026-05-04 10:33 43.86682 -70.16240 25597 ft 427 kts 30°
2026-05-04 10:34 43.89030 -70.13811 25131 ft 426 kts 30°
2026-05-04 10:34 43.91385 -70.11369 24650 ft 418 kts 30°
2026-05-04 10:34 43.93687 -70.08976 24194 ft 409 kts 30°
2026-05-04 10:34 43.95940 -70.06632 23751 ft 401 kts 30°
2026-05-04 10:35 43.98156 -70.04328 23291 ft 394 kts 30°
2026-05-04 10:35 44.00330 -70.02066 22818 ft 388 kts 30°
2026-05-04 10:35 44.02469 -69.99840 22356 ft 382 kts 29°
2026-05-04 10:35 44.04583 -69.97638 21928 ft 375 kts 29°
2026-05-04 10:36 44.06658 -69.95475 21500 ft 371 kts 29°
2026-05-04 10:36 44.08706 -69.93340 21093 ft 367 kts 29°
2026-05-04 10:36 44.10781 -69.91183 20698 ft 378 kts 29°
2026-05-04 10:36 44.12903 -69.88975 20261 ft 381 kts 30°
2026-05-04 10:37 44.14992 -69.86785 19816 ft 372 kts 30°
2026-05-04 10:37 44.17046 -69.84627 19416 ft 368 kts 30°
2026-05-04 10:37 44.19080 -69.82492 19002 ft 364 kts 30°
2026-05-04 10:37 44.21097 -69.80376 18583 ft 361 kts 30°
2026-05-04 10:39 44.32883 -69.67980 16295 ft 358 kts 30°
2026-05-04 10:39 44.34877 -69.65879 15870 ft 357 kts 30°
2026-05-04 10:39 44.36836 -69.63802 15450 ft 351 kts 30°
2026-05-04 10:40 44.38774 -69.61750 15040 ft 349 kts 30°
2026-05-04 10:40 44.40701 -69.59710 14634 ft 347 kts 30°
2026-05-04 10:40 44.42621 -69.57677 14234 ft 345 kts 30°
2026-05-04 10:40 44.44530 -69.55655 13851 ft 344 kts 30°
2026-05-04 10:41 44.46351 -69.53516 13401 ft 344 kts 42°
2026-05-04 10:41 44.47621 -69.50651 12890 ft 355 kts 64°
2026-05-04 10:41 44.48150 -69.47267 12733 ft 355 kts 78°
2026-05-04 10:41 44.48448 -69.43836 12433 ft 354 kts 80°
2026-05-04 10:42 44.48718 -69.40412 12122 ft 352 kts 80°
2026-05-04 10:42 44.48980 -69.37038 11795 ft 344 kts 80°
2026-05-04 10:42 44.49238 -69.33766 11506 ft 332 kts 79°
2026-05-04 10:42 44.49494 -69.30606 11200 ft 322 kts 79°
2026-05-04 10:43 44.49748 -69.27530 10806 ft 316 kts 79°
2026-05-04 10:44 44.51443 -69.07396 8887 ft 278 kts 78°
2026-05-04 10:45 44.51668 -69.04719 8665 ft 276 kts 78°
2026-05-04 10:45 44.51893 -69.02048 8419 ft 276 kts 79°
2026-05-04 10:45 44.52115 -68.99385 8150 ft 273 kts 79°
2026-05-04 10:45 44.52329 -68.96789 7938 ft 264 kts 79°
2026-05-04 10:46 44.52538 -68.94261 7695 ft 259 kts 79°
2026-05-04 10:46 44.52744 -68.91768 7492 ft 257 kts 79°
2026-05-04 10:46 44.52949 -68.89288 7259 ft 256 kts 79°
2026-05-04 10:46 44.53150 -68.86835 7054 ft 249 kts 79°
2026-05-04 10:47 44.53341 -68.84479 6819 ft 239 kts 78°
2026-05-04 10:47 44.53526 -68.82207 6572 ft 231 kts 78°
2026-05-04 10:47 44.53707 -68.80001 6362 ft 227 kts 78°
2026-05-04 10:47 44.53887 -68.77803 6175 ft 226 kts 78°
2026-05-04 10:49 44.56521 -68.65451 4995 ft 187 kts 35°
2026-05-04 10:49 44.57453 -68.64171 4829 ft 187 kts 35°
2026-05-04 10:50 44.58366 -68.62915 4743 ft 182 kts 34°
2026-05-04 10:51 44.65087 -68.60343 4009 ft 157 kts 316°
2026-05-04 10:52 44.65893 -68.61356 3843 ft 155 kts 314°
2026-05-04 10:52 44.66662 -68.62407 3668 ft 153 kts 313°
2026-05-04 10:52 44.67401 -68.63450 3459 ft 148 kts 312°
2026-05-04 10:54 44.71907 -68.69986 2463 ft 124 kts 311°
2026-05-04 10:54 44.72508 -68.70858 2295 ft 126 kts 310°
2026-05-04 10:56 44.77010 -68.77401 981 ft 138 kts 311°
2026-05-04 10:56 44.77686 -68.78382 780 ft 140 kts 311°
2026-05-04 10:56 44.78364 -68.79366 572 ft 142 kts 311°
2026-05-04 10:57 44.79059 -68.80371 376 ft 145 kts 312°
2026-05-04 10:57 44.79765 -68.81399 195 ft 146 kts 312°
2026-05-04 10:57 44.80408 -68.82324 169 ft 109 kts 314°
2026-05-04 10:57 44.80784 -68.82869 180 ft 47 kts 313°
2026-05-04 10:58 44.80980 -68.83151 181 ft 35 kts 316°
2026-05-04 10:58 44.81087 -68.83305 182 ft 14 kts 318°
2026-05-04 10:58 44.81172 -68.83298 182 ft 13 kts 41°
2026-05-04 10:58 44.81238 -68.83210 182 ft 13 kts 44°
2026-05-04 10:59 44.81300 -68.83122 205 ft 12 kts 47°
2026-05-04 10:59 44.81305 -68.83010 205 ft 12 kts 121°
2026-05-04 10:59 44.81240 -68.82922 203 ft 14 kts 136°
2026-05-04 10:59 44.81168 -68.82822 193 ft 15 kts 134°
2026-05-04 11:00 44.81089 -68.82706 191 ft 17 kts 134°
2026-05-04 11:01 44.80572 -68.81960 161 ft 15 kts 136°
2026-05-04 11:02 44.80513 -68.81853 159 ft 12 kts 84°
2026-05-04 11:02 44.80563 -68.81783 163 ft 10 kts 43°
2026-05-04 11:05 44.80682 -68.81606 174 ft 0 kts 15°